CAPE
1854 1814 1767 1729 1930 2049 1610 1297 1215 1203 1318 1633 1840 1513 1512 1265 1489 1787 1754 1934 2051 1756 1781 1722 1893 2096 1602 945 995 1077 1179 1258 1306 1363 1413 1529 2102 2683 2654 3138 2475 2063 1215
1467 1581 1646 1748 1777 1770 1795 1445 1345 1307 1407 1443 1804 1917 1821 1652 1666 1591 1570 864 1361 1369 1254 1432 1570 1490 1985 2029 1421 1319 1168 1559 1360 1418 1440 1894 2005 2251 2414 2890 2142 1712 895
1462 1560 1590 1723 1783 1601 1609 1644 1399 1426 1403 1455 1520 1684 1728 1853 2013 1899 1903 1575 1641 1772 1570 1335 1305 1441 1646 1568 1957 1587 1293 1916 2095 1933 1697 1474 1681 1751 1699 1798 2090 1236 850
912 932 1473 1566 1739 1623 1518 1587 1692 1543 1469 1450 1577 1555 1562 1743 1821 1710 1832 2060 1808 1612 1734 1621 1350 1263 1392 1789 1892 2113 1977 1905 1633 1752 1760 1585 1337 1087 1165 1182 851 669 620
254 839 904 1140 1273 1514 1570 1519 1601 1771 1675 1593 1481 1295 1225 1307 1284 1635 1727 1647 2008 1979 1779 1782 1575 1153 1036 1128 1158 1515 1842 1658 1345 1287 1193 896 597 1209 1299 629 949 661 642
1 5 38 807 1015 1378 1387 1568 1719 1613 1838 1864 1774 1535 1265 723 96 547 1262 1656 1750 1976 2077 2194 2108 1707 999 768 592 330 425 1214 1546 769 316 258 771 665 598 711 1151 564 990
0 2 5 5 42 720 1319 1557 1596 1601 1673 1700 1892 1830 1718 1637 892 74 161 901 1484 1921 1846 2237 1860 1109 1534 1783 1447 882 559 396 405 850 1142 1187 1056 1459 1544 1870 1240 1906 1594
0 0 0 0 3 5 36 1113 1184 1444 1556 1528 1576 1755 1812 1908 1389 853 265 307 949 1419 1673 1969 1940 2045 2112 2243 2022 1923 2094 2044 1561 932 815 1055 1511 1688 1792 1752 2211 2575 2040
5 0 0 0 0 3 6 1 77 766 1059 1547 1482 1471 1517 1909 1617 1134 823 799 352 670 1305 1592 1928 2213 2354 1669 1660 1974 2053 1843 1059 1270 1455 1559 1842 1545 1269 1169 829 617 446
0 2 3 0 0 0 0 1 3 2 206 348 813 1235 1180 1321 1576 1348 991 1119 947 771 867 902 581 1192 1791 1885 1799 1910 1948 1905 1605 945 970 739 631 841 580 695 938 748 560
0 0 0 2 0 0 0 0 2 4 4 2 123 350 974 1183 1403 1157 915 1337 1274 988 917 855 500 172 93 322 870 1846 1878 1982 1800 1396 1054 703 487 727 1485 1906 1806 1236 826
0 0 0 0 0 0 0 0 0 0 0 0 0 59 340 627 894 1186 668 572 1153 1151 1232 1087 1071 450 0 0 15 237 411 849 1015 709 414 80 6 16 208 529 1687 2022 1850
0 0 0 0 0 0 0 0 0 0 0 0 0 2 38 671 464 285 640 543 381 494 973 1128 726 356 176 85 0 2 9 139 386 492 569 405 117 22 121 455 690 1856 2840
0 0 0 0 0 0 0 0 0 0 0 0 0 0 35 126 371 455 314 395 158 15 37 275 321 230 102 198 451 300 135 274 468 701 810 734 435 139 261 466 439 389 609
0 0 0 0 0 0 0 0 0 0 0 0 0 0 0 0 6 0 0 0 0 1 0 12 628 769 565 616 882 1097 1209 885 645 665 801 739 530 529 663 614 484 358 495
0 0 0 0 0 0 0 0 0 0 0 0 0 0 0 0 0 0 0 0 0 0 0 2 211 644 916 1109 1099 1209 1292 1128 1085 1136 982 788 755 867 940 948 803 545 488
5 0 0 0 0 0 0 0 0 0 0 0 0 0 0 0 0 0 0 0 0 0 0 0 1 484 816 993 1271 1538 1586 1508 1367 1080 1029 1144 1174 1269 1004 796 814 630 517
8 8 4 0 0 0 0 0 0 0 0 0 0 0 0 0 0 0 0 0 0 0 0 0 3 228 806 810 970 1350 1466 1711 1618 1466 1430 1455 1135 728 599 627 539 399 559
9 6 3 3 1 0 0 0 0 0 0 0 0 0 0 0 0 0 0 0 3 0 0 3 42 705 819 442 580 1239 1366 1330 1411 1169 1416 1428 1621 1205 566 591 632 451 544
5 3 1 6 5 0 3 4 1 0 0 0 0 0 2 0 0 0 0 1 2 3 3 10 281 235 438 512 175 319 1219 1287 922 965 1122 1227 1454 1507 1452 1487 1562 1673 1374
7 3 1 0 0 6 17 8 1 3 2 5 5 1 0 0 0 0 1 1 2 1 3 2 1 23 74 45 78 22 93 339 600 835 997 1164 1403 1434 1552 1712 1666 1736 1715
3 4 4 0 0 6 26 21 22 20 17 20 14 9 0 0 0 1 2 5 7 7 7 5 5 6 1 0 0 0 0 0 6 7 26 38 100 266 423 542 629 626 728
7 6 4 2 5 0 1 6 1 19 12 23 24 23 11 1 0 1 4 6 8 6 5 5 5 5 6 4 5 5 2 0 0 4 0 0 4 4 12 40 111 143 211
5 6 4 0 0 0 0 0 0 3 0 0 2 4 1 0 1 3 5 8 7 7 5 5 5 6 4 3 3 2 5 5 4 3 6 0 4 3 3 3 24 29 17
6 4 3 3 3 3 1 0 0 0 0 0 1 1 3 3 5 5 5 7 6 5 4 4 4 5 6 4 3 2 1 0 1 0 0 1 2 0 0 3 1 0 0
5 4 3 3 1 2 4 3 3 1 2 2 2 3 4 5 5 5 5 5 4 4 3 2 3 4 3 1 0 0 0 0 0 0 0 0 0 0 0 0 0 0 0
CIN
-6 -1 -3 -9 -2 -1 -1 -7 -9 -9 -1 0 -1 0 -1 0 0 -1 -10 -4 -1 -1 -8 -1 -1 -2 -5 -14 -10 -21 -28 -28 -39 -43 -73 -71 -70 -51 -82 -59 -103 -95 -304
-29 -13 -2 -1 0 -1 -2 -4 -17 -6 0 0 -1 -1 -1 -1 -1 -1 -1 0 0 -1 -3 -1 -1 -1 -4 -11 -23 -24 -52 -36 -63 -88 -107 -80 -55 -52 -61 -59 -109 -111 -170
-9 -2 -2 -1 -3 -2 -1 -1 -3 -17 -4 -2 -1 -1 0 0 0 -1 -1 -1 -1 -1 -1 -1 -5 -3 -2 -10 -3 -14 -31 -10 -10 -22 -62 -89 -67 -65 -70 -82 -70 -133 -138
-42 -23 -4 -2 -2 -8 -2 -1 -1 -1 -14 -12 0 -1 -1 -1 -1 -1 -1 -1 -1 -1 -1 -1 -1 -7 -14 -2 -3 -1 -6 -13 -38 -38 -46 -43 -51 -85 -82 -95 -136 -144 -148
-114 -6 -12 -7 -1 -3 -6 -4 -2 -1 -1 -6 -13 -4 -1 -2 -1 -3 -1 0 -2 -1 -1 -1 -1 -2 -22 -42 -34 -13 -5 -20 -41 -50 -68 -92 -109 -68 -75 -168 -134 -156 -161
0 0 -170 -7 0 -2 -3 -3 -4 -6 -1 -1 -1 -9 -16 -9 -63 -14 -3 0 -1 -1 -2 -1 0 -4 -20 -72 -125 -192 -185 -82 -45 -131 -202 -203 -139 -136 -137 -149 -116 -188 -146
0 0 0 0 -150 -14 -1 -1 -1 -3 -4 -3 -1 -1 -2 -7 -26 -157 -98 -10 -2 0 -2 -1 -2 -2 -11 -13 -45 -102 -176 -240 -265 -149 -133 -119 -126 -74 -74 -61 -109 -51 -84
0 0 0 0 0 0 -85 -3 -2 -1 -2 -5 -6 -3 -2 -1 -16 -47 -96 -69 -20 -10 -5 -1 -2 -2 -4 -4 -6 -2 -12 -28 -78 -146 -181 -157 -94 -70 -48 -47 -18 -12 -57
-2 -1 0 0 0 0 0 0 -172 0 -9 0 -1 -2 -5 -1 -7 -31 -66 -46 -69 -59 -29 -17 -4 -1 0 -15 -9 -2 -1 -9 -41 -35 -62 -65 -51 -78 -99 -78 -129 -118 -158
0 -2 -1 0 0 0 0 0 0 0 -69 -90 -52 -1 -6 -4 -7 -18 -45 -21 -24 -37 -44 -70 -117 -51 -19 -10 -9 -6 -5 -24 -29 -45 -29 -125 -171 -157 -208 -189 -142 -143 -142
0 0 0 -1 0 0 0 0 0 0 0 0 -182 -101 -5 -2 -4 -20 -41 -7 -17 -22 -11 -11 -70 -183 -198 -152 -88 -12 -27 -18 -19 -28 -39 -96 -150 -128 -60 -54 -86 -96 -126
0 0 0 0 0 0 0 0 0 0 0 0 0 -117 -82 -31 -11 -4 -59 -94 -29 -22 -26 -9 -1 -25 -1 0 -211 -171 -142 -74 -45 -81 -139 -223 -84 -71 -121 -59 -30 -57 -51
0 0 0 0 0 0 0 0 0 0 0 0 0 -125 -173 -2 -2 -49 -39 -73 -93 -65 -41 -44 -62 -95 -140 -158 0 -36 -396 -180 -127 -136 -156 -191 -183 -169 -130 -63 -38 -9 -16
0 0 0 0 0 0 0 0 0 0 0 0 0 0 -56 -30 -3 -7 -18 -41 -138 -23 -245 -116 -121 -128 -166 -169 -98 -168 -239 -156 -111 -84 -97 -123 -139 -151 -99 -55 -53 -76 -46
0 0 0 0 0 0 0 0 0 0 0 0 0 0 0 0 -16 0 0 0 0 0 0 -133 -56 -37 -72 -80 -44 -10 0 -32 -88 -103 -61 -70 -99 -87 -49 -36 -39 -56 -36
0 0 0 0 0 0 0 0 0 0 0 0 0 0 0 0 0 0 0 0 0 0 0 -46 -70 -5 -1 -1 -9 -4 -5 -4 -3 -7 -29 -54 -43 -13 -3 -3 -5 -24 -35
-2 -2 0 0 0 0 0 0 0 0 0 0 0 0 0 0 0 0 0 0 0 0 0 0 -2 -25 -3 -2 -1 0 0 0 -1 -2 -1 0 0 0 -2 -14 -11 -8 -27
-2 -3 -3 0 0 0 0 0 0 0 0 0 0 0 0 0 0 0 0 0 0 0 0 0 -157 -57 -1 -12 -13 -3 -2 -3 -3 -6 -6 -3 -1 -2 -4 -2 -3 -12 -3
-2 -2 -4 -3 -2 0 0 0 0 -2 0 0 0 0 0 0 0 0 0 0 0 0 0 -77 -110 -2 -1 -51 -7 -5 -5 -4 -1 -23 -4 -3 -3 -1 -1 -2 -1 -4 -3
0 -1 -1 -2 -2 0 -5 -3 -2 0 -2 0 0 0 -2 0 0 0 0 0 0 0 0 -37 -14 -18 -4 -3 -62 0 -1 -3 -5 -3 -4 -4 -3 -8 -5 -4 -10 -5 -1
-1 -2 -1 -1 0 -4 -2 -4 -4 -3 -2 -4 -3 -2 0 0 0 0 0 0 0 0 0 0 0 -24 -20 -41 -92 -88 -34 -18 -8 -4 -1 -1 -1 -1 -1 -1 0 0 -3
-3 -2 -1 -1 0 -4 -1 -5 -4 -3 -4 -4 -3 -6 0 0 0 0 0 0 0 0 0 0 0 0 0 0 0 0 0 -46 -127 -154 -265 -260 -198 -102 -55 -29 -24 -38 -30
-1 -1 -1 -1 -1 0 -1 -11 -3 -7 -3 -5 -4 -3 -3 -1 -1 0 0 0 0 0 0 0 0 0 0 0 0 0 0 0 0 0 0 0 0 -148 -322 -226 -164 -142 -89
-1 -1 -1 -1 0 0 0 0 -2 -31 -3 0 -1 -1 -1 0 0 0 0 0 0 0 0 0 0 0 0 0 0 0 0 0 0 0 0 0 0 0 0 -25 -312 -311 -282
0 0 0 0 0 -1 -1 0 -2 -1 0 -1 0 0 0 0 0 0 0 0 0 0 0 0 0 0 0 0 0 0 0 0 0 0 0 0 0 0 0 0 0 0 0
0 0 0 0 0 0 0 0 0 0 0 0 0 0 0 0 0 0 0 0 0 0 0 0 0 0 0 0 0 0 0 0 0 0 0 0 0 0 0 0 0 0 0
Wind_Speed
21 18 16 14 11 12 14 12 21 28 24 25 11 20 9 15 19 20 25 12 21 25 25 24 25 27 27 26 25 26 26 26 26 26 26 25 27 19 22 19 17 10 16
14 20 17 15 19 11 13 10 9 18 11 9 22 17 23 17 9 10 23 23 23 25 25 25 26 27 27 28 29 28 28 28 28 29 27 25 25 23 21 19 11 5 10
23 15 17 17 14 18 13 15 13 10 10 2 6 17 18 22 20 10 14 25 27 27 27 27 27 27 28 29 28 29 28 24 25 27 29 27 26 24 28 12 6 10 20
21 19 16 17 19 17 19 20 16 19 15 12 11 3 10 19 13 25 9 11 21 28 25 29 29 29 30 29 28 29 30 29 30 29 27 27 28 26 17 22 31 26 28
23 23 22 23 22 24 22 20 22 20 21 22 21 20 10 10 13 11 21 12 6 14 29 24 27 31 30 25 30 20 27 27 30 31 30 30 30 29 30 31 33 32 21
23 26 24 23 23 21 22 24 23 23 23 23 24 25 25 22 10 14 8 19 17 11 20 16 23 24 10 13 4 25 29 27 27 32 32 30 31 33 30 32 33 33 17
20 23 25 25 24 25 25 24 26 27 29 28 28 28 29 30 36 32 17 11 38 36 25 25 28 15 6 7 7 7 7 8 9 19 25 24 29 31 26 23 8 26 8
19 21 22 24 26 28 27 27 29 30 30 31 32 33 33 32 32 35 32 29 30 37 41 35 9 34 35 15 14 17 15 17 15 13 10 10 12 16 10 12 16 18 6
22 24 24 24 26 27 28 29 30 31 30 32 34 35 36 37 34 31 30 33 35 33 31 34 42 40 23 23 31 29 22 22 26 10 9 9 9 10 12 22 22 12 19
25 25 26 25 25 27 28 30 32 32 33 33 35 37 38 39 37 35 31 34 37 36 29 24 19 24 29 24 19 26 17 26 30 38 35 14 11 11 11 12 10 13 18
29 29 29 28 28 27 27 29 32 34 36 36 34 37 38 38 37 37 33 32 36 38 37 37 29 19 22 23 23 27 19 34 32 28 15 20 13 15 14 12 10 8 9
34 34 34 33 31 30 30 30 31 33 35 36 38 38 38 39 38 37 36 34 36 39 43 43 38 34 23 21 22 22 21 25 33 34 35 29 29 28 23 20 12 11 10
38 38 38 37 37 35 35 34 34 31 33 34 36 39 41 40 39 39 38 35 37 38 42 44 48 48 44 38 35 30 25 28 28 30 29 38 33 32 29 28 27 20 13
40 40 40 40 40 39 38 37 36 33 32 32 32 35 37 39 39 33 33 32 33 36 39 43 45 50 51 49 42 31 30 29 30 30 31 35 37 32 29 24 20 20 22
41 42 42 41 41 41 39 39 38 36 34 34 34 36 36 36 36 40 40 40 40 40 42 42 43 40 39 39 39 35 31 27 28 33 38 37 35 32 30 28 27 25 24
43 42 42 42 42 41 40 40 36 37 38 36 36 37 38 38 40 42 44 47 45 41 39 41 41 40 41 35 33 33 32 30 30 28 27 29 32 34 33 32 29 26 26
44 44 43 44 44 44 43 43 44 39 35 36 37 36 37 38 39 39 40 41 46 42 43 43 41 39 37 40 39 33 35 32 27 27 30 31 31 31 29 28 29 28 24
41 44 45 45 45 45 45 44 43 43 43 41 36 36 33 35 38 37 41 43 42 38 43 43 42 41 43 44 48 47 41 37 33 33 34 34 33 32 32 32 29 28 26
41 41 43 45 44 45 45 45 45 44 44 44 42 37 33 34 35 39 37 36 39 40 40 42 43 40 39 37 37 38 36 34 32 32 33 35 35 33 30 29 29 29 30
41 42 42 43 46 46 45 46 46 45 45 44 43 42 39 37 38 38 37 37 38 39 39 40 38 38 38 37 39 41 28 31 34 33 33 33 34 35 38 37 36 36 34
41 41 42 42 42 43 45 46 46 46 45 44 43 40 36 39 42 41 40 39 39 39 39 40 38 37 30 32 33 37 32 34 32 33 29 30 31 35 35 33 33 34 34
41 41 41 40 40 42 44 45 46 46 45 44 44 41 35 40 42 40 40 40 39 37 36 37 38 37 35 29 31 34 31 30 32 30 30 31 33 33 34 34 33 34 35
40 40 40 41 39 41 42 43 43 42 41 42 43 42 42 42 41 41 40 39 39 38 37 36 36 35 33 30 30 31 34 33 31 30 33 32 33 36 34 33 32 32 32
39 39 39 39 39 39 41 41 40 39 39 41 42 41 42 42 42 41 39 38 38 37 36 35 35 35 34 33 32 32 31 32 32 29 30 32 33 29 26 26 24 28 29
35 35 36 37 38 39 40 41 42 42 40 39 40 40 40 41 41 40 38 37 36 35 33 33 32 32 32 30 29 29 29 28 28 25 25 25 28 28 24 23 23 22 23
32 33 34 35 35 36 36 37 39 40 41 40 39 39 38 38 38 37 37 35 33 32 30 29 28 27 27 26 25 25 24 25 23 21 20 21 23 25 27 25 25 26 26
Wind_Direction
260 263 266 270 272 277 278 286 264 236 253 238 309 205 102 146 166 178 234 303 254 225 239 255 251 245 242 250 253 254 252 253 253 265 278 273 288 259 279 276 276 266 38
264 265 266 269 268 270 276 283 290 277 291 147 188 165 192 165 129 139 196 250 255 238 246 255 256 251 257 248 248 257 260 270 266 267 263 263 272 269 268 270 257 247 269
265 263 266 267 269 269 271 276 281 288 290 216 159 178 179 191 186 151 167 210 242 229 240 249 258 259 258 248 263 259 259 274 250 259 276 271 272 268 303 251 40 29 16
282 283 271 268 269 270 271 274 277 276 282 287 288 258 178 189 176 205 170 173 196 224 213 244 243 254 257 261 273 266 260 272 262 257 251 263 275 275 248 297 324 353 350
279 279 279 278 272 270 272 273 274 276 277 278 280 283 284 191 187 182 198 186 185 190 229 288 271 251 259 282 266 298 284 286 274 271 268 279 278 304 296 292 309 326 356
281 278 283 285 280 275 274 273 275 274 275 275 276 276 277 282 215 202 284 199 198 197 296 303 292 290 302 305 232 218 280 290 296 279 283 299 305 297 314 314 302 292 261
302 286 283 285 284 283 278 277 276 274 273 274 273 274 274 273 265 274 281 254 243 250 222 290 284 293 262 295 281 247 254 290 294 309 308 313 309 307 325 333 313 323 256
314 307 309 293 284 283 283 282 280 277 276 275 274 274 273 275 274 272 275 279 279 260 252 269 242 253 268 297 299 303 304 306 306 303 290 300 315 324 319 330 335 337 308
314 312 311 304 295 286 285 283 284 284 281 279 277 276 274 272 276 277 276 277 276 278 280 278 265 267 290 283 286 289 299 302 300 292 272 268 286 303 315 321 322 327 249
307 310 310 310 307 298 292 288 287 285 285 283 279 277 276 274 274 275 277 276 275 277 281 279 255 231 283 284 282 289 236 294 295 283 288 305 274 267 275 293 289 245 240
298 300 302 305 304 305 303 298 289 287 285 285 282 279 277 278 277 275 276 277 277 277 278 279 282 266 241 239 269 282 256 288 292 297 263 242 291 304 305 301 292 263 253
293 293 294 296 298 300 300 300 298 294 292 287 279 278 279 278 277 277 277 277 277 276 274 274 280 283 276 257 259 246 250 280 288 290 291 295 297 301 307 309 291 277 278
290 289 289 290 290 292 293 295 297 298 296 293 286 279 277 276 276 276 279 280 279 278 277 275 272 273 279 284 282 279 276 282 284 287 288 286 291 295 299 303 303 305 295
289 288 288 287 287 287 288 288 289 293 295 294 292 286 280 276 278 284 281 286 287 286 282 279 278 273 271 274 281 283 281 280 281 283 285 287 286 291 294 297 298 301 301
290 288 286 287 286 285 285 284 285 285 288 289 289 289 289 287 283 282 284 285 285 285 285 283 280 279 280 278 277 278 279 281 281 281 280 282 284 287 289 292 295 297 298
290 289 287 285 284 285 284 284 284 283 282 284 287 287 287 288 289 288 284 282 282 285 285 283 283 281 277 278 277 276 275 275 279 281 282 282 283 284 286 289 291 292 294
290 288 287 285 282 281 281 281 280 284 283 281 282 286 286 286 289 291 292 288 283 283 280 280 279 278 279 277 277 276 273 273 273 277 280 282 285 286 286 288 289 291 291
296 291 287 285 282 280 279 279 280 280 280 281 281 282 286 287 290 292 292 291 287 284 279 279 277 277 276 276 273 272 273 274 273 275 279 281 282 283 285 286 287 288 289
298 296 291 287 284 280 278 277 277 278 279 279 281 281 282 286 288 290 293 295 292 289 287 280 278 278 277 280 279 274 274 273 274 276 276 278 279 281 282 283 285 285 288
300 297 294 290 283 281 280 275 274 275 276 277 277 278 280 283 283 288 292 294 295 291 290 287 286 283 279 276 278 282 271 277 279 279 277 278 280 279 279 281 284 286 289
300 298 296 291 286 282 277 275 273 273 274 275 277 280 281 278 281 283 287 290 293 292 289 289 291 296 281 280 281 281 292 285 288 285 283 282 281 280 280 281 282 285 286
299 297 295 291 287 281 277 276 275 271 271 273 276 277 278 281 278 281 283 286 290 293 291 289 289 286 295 294 287 284 285 289 288 289 289 288 286 282 281 282 283 284 286
298 295 292 288 286 282 279 276 274 272 271 273 276 277 277 278 278 280 283 284 285 288 290 288 288 288 287 293 298 290 285 284 290 293 287 287 285 282 283 283 284 284 286
297 294 290 288 285 281 276 275 273 274 272 273 275 277 278 278 278 279 283 284 284 285 285 288 286 286 284 285 289 289 289 290 288 290 289 286 283 289 288 288 286 284 285
300 295 290 287 283 279 275 272 270 271 275 275 275 278 280 280 278 278 281 283 282 283 285 286 287 286 286 287 291 292 291 293 295 293 290 293 285 283 287 292 291 291 291
306 297 289 285 282 280 279 277 276 275 275 275 276 278 281 281 279 278 278 279 281 281 282 285 286 288 291 292 295 293 299 300 306 304 300 295 297 287 277 287 295 296 293